Regional Weather Roundup
Issued by NWS

Home | Current Version | Previous Version | Text Only | Print | Product List | Glossary Off
Versions: 1 2 3 4 5 6 7 8 9 10 11 12 13 14 15 16 17 18 19 20 21 22 23 24 25 26 27

000
ASUS45 KBOU 110210
RWRCO

WEATHER ROUNDUP FOR COLORADO
NATIONAL WEATHER SERVICE DENVER/BOULDER CO
700 PM MST SUN DEC 10 2017

NOTE: "FAIR" INDICATES FEW OR NO CLOUDS BELOW 12000 FEET WITH NO
SIGNIFICANT WEATHER AND/OR OBSTRUCTIONS TO VISIBILITY.

COZ001>005-013-030-031-110300-
...NORTHWEST COLORADO...

CITY           SKY/WX    TMP DP  RH WIND       PRES   REMARKS
CRAIG          FAIR      14   8  77 CALM      30.53R
HAYDEN         NOT AVBL
MEEKER         FAIR      22   2  42 CALM      30.51R
RABBIT EARS PA FAIR      23   3  42 W12G17    30.55S WCI  12
STEAMBOAT SPGS FAIR      25  13  59 CALM      30.54R
WALDEN         FAIR      14   1  57 SE5       30.53R WCI   6
$$

COZ006>008-011-110300-
...WEST CENTRAL VALLEYS...

CITY           SKY/WX    TMP DP  RH WIND       PRES   REMARKS
GRAND JUNCTION FAIR      28   3  34 CALM      30.49S
MONTROSE       FAIR      24   1  36 SE9       30.54R WCI  14
EAGLE          FAIR      22  11  62 E6        30.58S WCI  14
RIFLE          FAIR      28   3  34 E6        30.51S WCI  22
DELTA          FAIR      32  -1  24 N3        30.52R
NUCLA          FAIR      32  -8  18 E9        30.54R WCI  24
$$

COZ017>023-064>068-110300-
...SOUTHWEST COLORADO...

CITY           SKY/WX    TMP DP  RH WIND       PRES   REMARKS
DURANGO        FAIR      29   2  31 N9        30.46S WCI  20
CORTEZ         FAIR      20   0  41 NE12      30.49R WCI   8
PAGOSA SPRINGS FAIR      30  -5  21 CALM      30.49S
TELLURIDE      FAIR      32 -11  15 SE5       30.56S WCI  27
WOLF CREEK PAS FAIR      30 -15  13 CALM      30.64S
$$

COZ009-010-012-014-032>034-037-058>063-110300-
...CENTRAL COLORADO...

CITY           SKY/WX    TMP DP  RH WIND       PRES   REMARKS
ASPEN          FAIR      26   3  37 SW9       30.53F WCI  17
BUENA VISTA    FAIR      37 -10  13 NW7       30.48R
COPPER MTN     NOT AVBL
BERTHOUD PASS  FAIR      19   9  63 NW25G32   30.55S WCI   2
COTTONWOOD PAS FAIR      41 -31   4 W13G20    30.53R
GUNNISON       FAIR      19   2  47 CALM      30.55R
KREMMLING      FAIR      14   9  79 CALM      30.59S
LEADVILLE      FAIR      20  -5  33 NE8       30.54S WCI  10
MONARCH PASS   FAIR      27  -9  20 SW14      30.69S WCI  15
SALIDA         FAIR      37  -7  15 NW8       30.55R
SUNLIGHT       FAIR      28 -15  14 W5        30.62S WCI  23
WILKERSON PASS FAIR      32 -17  11 N5        30.57S WCI  27
$$

COZ069>075-110300-
...SAN LUIS VALLEY/SANGRE DE CRISTO MOUNTAINS...

CITY           SKY/WX    TMP DP  RH WIND       PRES   REMARKS
ALAMOSA        FAIR      18  -5  36 N7        30.47R WCI   9
DEL NORTE      FAIR      23  -6  27 W13       30.50S WCI  12
LA VETA PASS   FAIR      30  -9  17 SW21        N/A  WCI  17
SAGUACHE       FAIR      19  -9  27 N3        30.50S
$$

COZ035-036-038>040-110300-
...NORTHERN COLORADO FRONT RANGE...

CITY           SKY/WX    TMP DP  RH WIND       PRES   REMARKS
DENVER INTL AP FAIR      41  -5  14 S7        30.32F
DMNS CITY PARK NOT AVBL
AURORA         PTCLDY    38  -4  16 S9        30.34S
FRONT RANGE AP CLEAR     32  -2  23 S8        30.33F WCI  25
ERIE MUNI ARPT FAIR      30   6  36 S3        30.37F
BOULDER MUN AP FAIR      52   0  11 SW8       30.31F
CENTENNIAL     FAIR      41   0  18 SW8       30.35S
BROOMFIELD     CLEAR     45  -2  14 SW10      30.33F
FORT COLLINS   FAIR      42   6  22 CALM      30.32R
LONGMONT       FAIR      33   9  37 CALM      30.33F
$$

COZ041-046-047-076>085-087-088-110300-
...PIKES PEAK/PALMER DIVIDE AND SOUTHERN FOOTHILLS...

CITY           SKY/WX    TMP DP  RH WIND       PRES   REMARKS
COLO. SPRINGS  FAIR      35  -4  18 N5        30.39S WCI  31
A. F. ACADEMY  FAIR      24  -6  26 N12       30.39R WCI  13
SCHRIEVER AFB  FAIR      38  -8  13 W5        30.39R
CHEYENNE MTN   FAIR      41  -8  12 NW3       30.35R
ELLICOTT         N/A    N/A N/A N/A CALM      30.37S
FALCON         FAIR      32  -9  16 W9        30.40S WCI  25
FORT CARSON    FAIR      35  -2  20 NW9       30.37R WCI  28
LIMON          FAIR      19  -5  34 NW3       30.34S
MONUMENT HILL  FAIR      36  -6  17 SW13      30.40S
CANON CITY     FAIR      37   0  20 W6        30.37S
WALSENBURG     FAIR      37   1  22 SW12      30.37F
TRINIDAD       FAIR      32   4  30 W12       30.37S WCI  23
$$

COZ042>045-048>051-090-091-110300-
...NORTHEAST COLORADO...

CITY           SKY/WX    TMP DP  RH WIND       PRES   REMARKS
GREELEY ARPT   FAIR      27   7  42 N3        30.31S
AKRON          FAIR      41  -5  14 NW6       30.29S
BURLINGTON     FAIR      30   2  30 SW10      30.30S WCI  21
WRAY           FAIR      34   1  25 W10       30.26S WCI  26
YUMA           FAIR      30   0  27 W10       30.28S WCI  21
STERLING       FAIR      34   5  29 W6        30.26F WCI  29
HOLYOKE        FAIR      34   3  27 W9        30.25S WCI  26
FORT MORGAN    FAIR      40  -5  15 W10       30.30S
$$

COZ086-089-092>099-110300-
...SOUTHEAST COLORADO...

CITY           SKY/WX    TMP DP  RH WIND       PRES   REMARKS
PUEBLO         FAIR      30  -2  25 N3        30.34S
LA JUNTA       FAIR      50  -1  12 CALM      30.32F
LAMAR          FAIR      27  -1  30 SW9       30.30S WCI  18
SPRINGFIELD      N/A     24   3  40 SW5       30.34S WCI  18
$$




USA.gov is the U.S. government's official web portal to all federal, state and local government web resources and services.